User: anonymous   Login
Location: Unspecified
(0.0000°N, 0.0000°E)
Time: 11:11:29
(UTC+01:00)
Language:

Cosmos 1833 Rocket - Orbit

View from above orbital plane
View from above orbital plane
View from above satellite
View from above satellite

Ground track
Ground track

The orbit data is extracted from the following two-line orbital elements,

1 17590U 87027B   18020.52481392 -.00000113 +00000-0 -32642-4 0  9999
2 17590 071.0030 052.3143 0006634 312.7756 047.2809 14.16755088594679
Epoch (UTC): 20 January 2018 12:35:43
Eccentricity: 0.0006634
inclination: 71.0030°
perigee height: 831 km
apogee height: 841 km
right ascension of ascending node: 52.3143°
argument of perigee: 312.7756°
revolutions per day: 14.16755088
mean anomaly at epoch: 47.2809°
orbit number at epoch: 59467

The dashed part of the orbit path shows where the satellite is in the earth's shadow,  

DLR